Estación de Illapel
Ultimos registro cada 15 minutos 23
| N° | Estación | Fecha / Hora | Temperatura | Humedad | Lluvia | Velocidad | Dirección | Radiación | Presion |
| 23 | Illapel | 03-09-2026 05:30 | 10,5 | 33 | 0 | 0,9 | 131 | 0 | 994,3 |
| 22 | Illapel | 03-09-2026 05:15 | 10,7 | 33 | 0 | 0 | 123 | 0 | 994,4 |
| 21 | Illapel | 03-09-2026 05:00 | 10,7 | 33 | 0 | 0 | 115 | 0 | 994,6 |
| 20 | Illapel | 03-09-2026 04:45 | 10,7 | 33 | 0 | 0,9 | 133 | 0 | 994,6 |
| 19 | Illapel | 03-09-2026 04:30 | 10,8 | 33 | 0 | 1,8 | 156 | 0 | 994,6 |
| 18 | Illapel | 03-09-2026 04:15 | 10,9 | 33 | 0 | 0 | 137 | 0 | 994,5 |
| 17 | Illapel | 03-09-2026 04:00 | 11,1 | 33 | 0 | 0,4 | 121 | 0 | 994,5 |
| 16 | Illapel | 03-09-2026 03:45 | 11,1 | 32 | 0 | 0,4 | 241 | 0 | 994,6 |
| 15 | Illapel | 03-09-2026 03:30 | 11,2 | 32 | 0 | 0 | 252 | 0 | 994,8 |
| 14 | Illapel | 03-09-2026 03:15 | 11,3 | 32 | 0 | 0 | 275 | 0 | 994,5 |
| 13 | Illapel | 03-09-2026 03:00 | 11,3 | 32 | 0 | 0 | 273 | 0 | 994,7 |
| 12 | Illapel | 03-09-2026 02:45 | 11,4 | 32 | 0 | 0 | 200 | 0 | 994,7 |
| 11 | Illapel | 03-09-2026 02:30 | 11,6 | 32 | 0 | 0,4 | 214 | 0 | 994,8 |
| 10 | Illapel | 03-09-2026 02:15 | 11,6 | 32 | 0 | 0 | 256 | 0 | 995 |
| 9 | Illapel | 03-09-2026 02:00 | 11,6 | 32 | 0 | 0 | 256 | 0 | 995 |
| 8 | Illapel | 03-09-2026 01:45 | 11,7 | 31 | 0 | 0,4 | 255 | 0 | 995,1 |
| 7 | Illapel | 03-09-2026 01:30 | 11,7 | 31 | 0 | 0 | 255 | 0 | 995,1 |
| 6 | Illapel | 03-09-2026 01:15 | 11,8 | 31 | 0 | 0 | 255 | 0 | 995,2 |
| 5 | Illapel | 03-09-2026 01:00 | 11,9 | 30 | 0 | 0 | 255 | 0 | 995,3 |
| 4 | Illapel | 03-09-2026 00:45 | 12 | 30 | 0 | 0 | 255 | 0 | 995,3 |
| 3 | Illapel | 03-09-2026 00:30 | 12,1 | 30 | 0 | 0 | 252 | 0 | 995,3 |
| 2 | Illapel | 03-09-2026 00:15 | 12,2 | 30 | 0 | 0 | 247 | 0 | 995,2 |
| 1 | Illapel | 03-09-2026 00:00 | 12,2 | 29 | 0 | 0 | 247 | 0 | 995,3 |